TimeCDT,TemperatureF,Dew PointF,Humidity,Sea Level PressureIn,VisibilityMPH,Wind Direction,Wind SpeedMPH,Gust SpeedMPH,PrecipitationIn,Events,Conditions,WindDirDegrees,DateUTC
12:03 AM,78.8,73.4,83,29.96,10.0,SSE,11.5,-,N/A,,Mostly Cloudy,160,2013-05-20 05:03:00
12:15 AM,80.6,73.4,79,29.97,10.0,SSE,11.5,-,N/A,,Overcast,150,2013-05-20 05:15:00
12:53 AM,79.0,73.0,82,29.96,10.0,SSE,11.5,-,N/A,,Mostly Cloudy,150,2013-05-20 05:53:00
1:00 AM,80.6,73.4,79,29.96,10.0,SSE,15.0,-,N/A,,Scattered Clouds,150,2013-05-20 06:00:00
1:28 AM,78.8,73.4,83,29.94,10.0,SSE,12.7,-,N/A,,Mostly Cloudy,150,2013-05-20 06:28:00
1:53 AM,79.0,73.0,82,29.94,10.0,SSE,10.4,-,N/A,,Mostly Cloudy,160,2013-05-20 06:53:00
2:16 AM,78.8,73.4,83,29.94,10.0,SSE,10.4,-,N/A,,Scattered Clouds,150,2013-05-20 07:16:00
2:34 AM,78.8,73.4,83,29.95,9.0,SSE,9.2,-,N/A,,Mostly Cloudy,150,2013-05-20 07:34:00
2:42 AM,78.8,73.4,83,29.95,9.0,SSE,9.2,-,N/A,,Mostly Cloudy,150,2013-05-20 07:42:00
3:09 AM,78.8,73.4,83,29.94,10.0,SSE,9.2,-,N/A,,Mostly Cloudy,160,2013-05-20 08:09:00
3:19 AM,78.8,73.4,83,29.94,10.0,SSE,11.5,-,N/A,,Mostly Cloudy,160,2013-05-20 08:19:00
3:31 AM,78.8,73.4,83,29.94,10.0,SSE,11.5,-,N/A,,Mostly Cloudy,160,2013-05-20 08:31:00
3:53 AM,79.0,73.0,82,29.94,10.0,SSE,10.4,-,N/A,,Mostly Cloudy,160,2013-05-20 08:53:00
4:01 AM,78.8,73.4,83,29.94,10.0,SSE,9.2,-,N/A,,Mostly Cloudy,160,2013-05-20 09:01:00
4:11 AM,78.8,73.4,83,29.94,10.0,South,9.2,-,N/A,,Mostly Cloudy,170,2013-05-20 09:11:00
4:53 AM,79.0,73.0,82,29.94,9.0,SSE,9.2,-,N/A,,Mostly Cloudy,160,2013-05-20 09:53:00
5:11 AM,78.8,73.4,83,29.94,10.0,SSE,10.4,-,N/A,,Mostly Cloudy,160,2013-05-20 10:11:00
5:53 AM,79.0,72.0,79,29.96,10.0,SSE,9.2,-,N/A,,Overcast,160,2013-05-20 10:53:00
6:53 AM,79.0,73.0,82,29.97,9.0,SSE,8.1,-,N/A,,Mostly Cloudy,160,2013-05-20 11:53:00
7:53 AM,82.0,73.9,76,29.98,10.0,SSE,13.8,-,N/A,,Overcast,160,2013-05-20 12:53:00
8:00 AM,80.6,73.4,79,29.98,10.0,South,10.4,-,N/A,,Overcast,170,2013-05-20 13:00:00
8:41 AM,82.4,73.4,74,29.99,10.0,South,10.4,-,N/A,,Overcast,170,2013-05-20 13:41:00
8:53 AM,82.0,73.0,74,29.99,10.0,SSE,12.7,-,N/A,,Mostly Cloudy,150,2013-05-20 13:53:00
9:39 AM,82.4,73.4,74,29.99,10.0,South,13.8,-,N/A,,Overcast,170,2013-05-20 14:39:00
9:53 AM,82.9,72.0,69,30.00,10.0,South,13.8,-,N/A,,Mostly Cloudy,170,2013-05-20 14:53:00
10:05 AM,82.4,73.4,74,29.99,10.0,South,15.0,-,N/A,,Mostly Cloudy,180,2013-05-20 15:05:00
10:53 AM,84.9,73.9,69,29.99,10.0,SSE,17.3,25.3,N/A,,Scattered Clouds,160,2013-05-20 15:53:00
11:53 AM,86.0,73.0,65,29.98,10.0,SSE,19.6,26.5,N/A,,Mostly Cloudy,150,2013-05-20 16:53:00
12:01 PM,87.8,73.4,62,29.98,10.0,SSE,17.3,-,N/A,,Mostly Cloudy,160,2013-05-20 17:01:00
12:24 PM,86.0,73.4,66,29.98,10.0,South,17.3,-,N/A,,Mostly Cloudy,180,2013-05-20 17:24:00
12:53 PM,87.1,73.9,65,29.98,10.0,SSE,15.0,-,N/A,,Mostly Cloudy,160,2013-05-20 17:53:00
1:25 PM,87.8,73.4,62,29.97,10.0,SSE,17.3,24.2,N/A,,Mostly Cloudy,160,2013-05-20 18:25:00
1:53 PM,89.1,75.0,63,29.96,10.0,South,15.0,-,N/A,,Scattered Clouds,180,2013-05-20 18:53:00
2:53 PM,88.0,73.0,61,29.96,10.0,South,17.3,25.3,N/A,,Mostly Cloudy,170,2013-05-20 19:53:00
3:08 PM,89.6,73.4,59,29.95,10.0,South,16.1,-,N/A,,Scattered Clouds,180,2013-05-20 20:08:00
3:53 PM,88.0,73.0,61,29.94,10.0,South,16.1,-,N/A,,Scattered Clouds,170,2013-05-20 20:53:00
4:53 PM,86.0,73.0,65,29.94,10.0,South,17.3,-,N/A,,Partly Cloudy,180,2013-05-20 21:53:00
5:53 PM,86.0,73.0,65,29.92,10.0,South,16.1,21.9,N/A,,Partly Cloudy,180,2013-05-20 22:53:00
6:53 PM,82.9,73.0,72,29.89,10.0,South,15.0,-,N/A,,Scattered Clouds,170,2013-05-20 23:53:00
7:53 PM,82.0,73.0,74,29.90,10.0,SSE,12.7,19.6,N/A,,Partly Cloudy,160,2013-05-21 00:53:00
9:00 PM,80.6,73.4,79,29.91,10.0,SSE,15.0,-,N/A,,Mostly Cloudy,150,2013-05-21 02:00:00
9:53 PM,80.1,73.9,81,29.92,10.0,SSE,13.8,-,N/A,,Scattered Clouds,150,2013-05-21 02:53:00
10:06 PM,80.6,73.4,79,29.92,10.0,SSE,12.7,-,N/A,,Mostly Cloudy,150,2013-05-21 03:06:00
10:17 PM,80.6,73.4,79,29.93,10.0,SSE,13.8,-,N/A,,Scattered Clouds,150,2013-05-21 03:17:00
10:27 PM,80.6,73.4,79,29.92,10.0,SSE,15.0,-,N/A,,Mostly Cloudy,150,2013-05-21 03:27:00
10:53 PM,80.1,73.9,81,29.92,10.0,SSE,13.8,-,N/A,,Mostly Cloudy,150,2013-05-21 03:53:00
11:33 PM,80.6,73.4,79,29.93,10.0,SSE,13.8,-,N/A,,Overcast,150,2013-05-21 04:33:00
11:53 PM,80.1,73.9,81,29.92,10.0,SE,12.7,-,N/A,,Overcast,140,2013-05-21 04:53:00